User: anonymous   Login
Location: Forst
(46.9333°N, 15.4333°E)
Time: 13:41:09
(UTC+00:00)
Language:

Tiangong - Orbit

View from above orbital plane
View from above orbital plane
View from above satellite
View from above satellite

Ground track
Ground track

The orbit data is extracted from the following two-line orbital elements,

1 48274U 21035A   21297.20082701  .00026231  00000-0  30885-3 0  9998
2 48274  41.4699 216.3081 0006757 247.7135 265.1231 15.60769787 27875
Epoch (UTC): 24 October 2021 04:49:11
Eccentricity: 0.0006757
inclination: 41.4699°
perigee height: 381 km
apogee height: 390 km
right ascension of ascending node: 216.3081°
argument of perigee: 247.7135°
revolutions per day: 15.60769787
mean anomaly at epoch: 265.1231°
orbit number at epoch: 2787

The dashed part of the orbit path shows where the satellite is in the earth's shadow,  

DLR